EHI
0 0 0 0 0 0 0 0 0 0 0 0 0 0 0 0 0 0 0 0 0 0 0 0 0 0 0 0 0 0 0 0 0 0 0 0 0 0 0 0 0 0 0
0 0 0 0 0 0 0 0 0 0 0 0 0 0 0 0 0 0 0 0 0 0 0 0 0 0 0 0 0 0 0 0 0 0 0 0 0 0 0 0 0 0 0
0 0 0 0 0 0 0 0 0 0 0 0 0 0 0 0 0 0 0 0 0 0 0 0 0 0 0 0 0 0 0 0 0 0 0 0 0 0 0 0 0 0 0
0 0 0 0 0 0 0 0 0 0 0 0 0 0 0 0 0 0 0 0 0 0 0 0 0 0 0 0 0 0 0 0 0 0 0 0 0 0 0 0 0 0 0
0 0 0 0 0 0 0 0 0 0 0 0 0 0 0 0 0 0 0 0 0 0 0 0 0 0 0 0 0 0 0 0 0 0 0 0 0 0 0 0 0 0 0
0 0 0 0 0 0 0 0 0 0 0 0 0 0 0 0 0 0 0 0 0 0 0 0 0 0 0 0 0 0 0 0 0 0 0 0 0 0 0 0 0 0 0
0 0 0 0 0 0 0 0 0 0 0 0 0 0 0 0 0 0 0 0 0 0 0 0 0 0 0 0 0 0 0 0 0 0 0 0 0 0 0 0 0 0 0
0 0 0 0 0 0 0 0 0 0 0 0 0 0 0 0 0 0 0 0 0 0 0 0 0 0 0 0 0 0 0 0 0 0 0 0 0 0 0 0 0 0 0
0 0 0 0 0 0 0 0 0 0 0 0 0 0 0 0 0 0 0 0 0 0 0 0 0 0 0 0 0 0 0 0 0 0 0 0 0 0 0 0 0 0 0
0 0 0 0 0 0 0 0 0 0 0 0 0 0 0 0 0 0 0 0 0 0 0 0 0 0 0 0 0 0 0 0 0 0 0 0 0 0 0 0 0 0 0
0 0 0 0 0 0 0 0 0 0 0 0 0 0 0 0 0 0 0 0 0 0 0 0 0 0 0 0 0 0 0 0 0 0 0 0 0 0 0 0 0 0 0
0 0 0 0 0 0 0 0 0 0 0 0 0 0 0 0 0 0 0 0 0 0 0 0 0 0 0 0 0 0 0 0 0 0 0 0 0 0 0 0 0 0 0
0 0 0 0 0 0 0 0 0 0 0 0 0 0 0 0 0 0 0 0 0 0 0 0 0 0 0 0 0 0 0 0 0 0 0 0 0 0 0 0 0 0 0
0 0 0 0 0 0 0 0 0 0 0 0 0 0 0 0 0 0 0 0 0 0 0 0 0 0 0 0 0 0 0 0 0 0 0 0 0 0 0 0 0 0 0
0 0 0 0 0 0 0 0 0 0 0 0 0 0 0 0 0 0 0 0 0 0 0 0 0 0 0 0 0 0 0 0 0 0 0 0 0 0 0 0 0 0 0
0 0 0 0 0 0 0 0 0 0 0 0 0 0 0 0 0 0 0 0 0 0 0 0 0 0 0 0 0 0 0 0 0 0 0 0 0 0 0 0 0 0 0
0 0 0 0 0 0 0 0 0 0 0 0 0 0 0 0 0 0 0 0 0 0 0 0 0 0 0 0 0 0 0 0 0 0 0 0 0 0 0 0 0 0 0
0 0 0 0 0 0 0 0 0 0 0 0 0 0 0 0 0 0 0 0 0 0 0 0 0 0 0 0 0 0 0 0 0 0 0 0 0 0 0 0 0 0 0
0 0 0 0 0 0 0 0 0 0 0 0 0 0 0 0 0 0 0 0 0 0 0 0 0 0 0 0 0 0 0 0 0 0 0 0 0 0 0 0 0 0 0
0 0 0 0 0 0 0 0 0 0 0 0 0 0 0 0 0 0 0 0 0 0 0 0 0 0 0 0 0 0 0 0 0 0 0 0 0 0 0 0 0 0 0
0 0 0 0 0 0 0 0 0 0 0 0 0 0 0 0 0 0 0 0 0 0 0 0 0 0 0 0 0 0 0 0 0 0 0 0 0 0 0 0 0 0 0
0 0 0 0 0 0 0 0 0 0 0 0 0 0 0 0 0 0 0 0 0 0 0 0 0 0 0 0 0 0 0 0 0 0 0 0 0 0 0 0 0 0 0
0 0 0 0 0 0 0 0 0 0 0 0 0 0 0 0 0 0 0 0 0 0 0 0 0 0 0 0 0 0 0 0 0 0 0 0 0 0 0 0 0 0 0
0 0 0 0 0 0 0 0 0 0 0 0 0 0 0 0 0 0 0 0 0 0 0 0 0 0 0 0 0 0 0 0 0 0 0 0 0 0 0 0 0 0 0
0 0 0 0 0 0 0 0 0 0 0 0 0 0 0 0 0 0 0 0 0 0 0 0 0 0 0 0 0 0 0 0 0 0 0 0 0 0 0 0 0 0 0
0 0 0 0 0 0 0 0 0 0 0 0 0 0 0 0 0 0 0 0 0 0 0 0 0 0 0 0 0 0 0 0 0 0 0 0 0 0 0 0 0 0 0
Wind_Speed
7 7 8 8 8 8 7 5 5 5 3 2 2 2 2 2 2 2 2 2 2 1 0 1 1 1 2 2 3 3 3 2 2 2 2 2 2 1 1 1 1 1 1
9 9 9 8 8 7 7 7 6 5 4 2 2 2 2 1 1 2 3 3 2 2 1 1 1 1 1 2 3 3 3 2 2 3 2 1 0 1 1 1 1 1 1
7 8 9 8 7 7 7 6 7 6 5 4 2 2 2 2 2 3 3 3 3 2 1 1 1 2 2 2 3 3 4 3 2 2 3 3 3 1 0 1 1 1 1
7 7 8 8 8 7 6 6 6 6 5 4 3 2 2 2 3 2 3 3 2 2 2 1 1 2 2 2 3 3 3 4 3 1 0 1 3 3 1 0 0 1 1
7 8 8 8 7 7 6 6 7 7 6 5 3 2 2 2 2 2 3 3 3 2 2 2 1 2 2 2 2 2 3 3 4 3 2 1 1 1 3 2 1 0 0
7 8 8 8 8 7 7 7 7 7 7 6 4 3 3 3 3 3 3 3 3 2 2 2 2 2 2 2 3 3 3 3 3 3 3 3 3 3 2 2 2 1 1
6 7 8 9 9 9 8 7 8 8 7 7 5 5 4 3 3 3 3 3 3 3 3 3 2 2 2 2 2 3 3 4 4 4 3 2 2 3 3 3 2 1 1
6 6 6 7 8 9 8 8 8 8 8 7 7 6 5 3 3 3 3 3 3 3 4 3 3 3 2 2 2 2 3 3 4 4 4 3 2 2 3 3 3 2 1
6 6 6 6 7 8 8 7 7 8 8 8 7 6 5 4 4 4 4 3 3 3 3 3 3 3 2 2 2 2 2 2 3 4 4 3 3 3 2 2 3 4 3
7 6 6 7 7 7 7 7 7 7 8 8 7 6 6 5 5 4 4 4 4 3 3 3 3 3 2 2 2 2 2 2 2 3 3 3 3 3 3 2 2 3 3
7 6 6 6 6 7 7 7 8 8 8 8 8 7 6 5 5 4 4 4 4 4 3 3 3 3 3 2 2 2 2 3 2 2 3 4 4 3 3 3 3 2 3
5 5 5 6 6 7 8 8 8 8 8 8 8 7 7 6 5 5 4 4 4 3 3 3 2 2 2 2 2 3 3 3 3 3 3 4 3 4 4 4 4 3 3
6 6 5 5 6 7 7 8 8 8 8 7 7 7 7 7 6 6 5 4 3 3 3 2 2 2 2 2 2 3 3 3 3 3 4 4 4 4 4 4 4 3 3
6 6 7 6 6 7 7 8 8 8 8 8 7 7 7 7 6 6 5 5 4 3 2 2 2 2 2 2 2 2 2 2 2 3 3 3 5 5 6 4 5 4 3
7 7 8 8 7 7 7 7 8 8 8 8 7 7 7 7 6 6 5 4 4 3 3 2 2 2 2 2 2 2 2 2 2 2 2 3 4 4 5 4 5 5 4
8 8 8 9 9 8 8 8 8 8 8 7 7 7 7 7 6 6 5 4 4 4 2 2 2 1 1 1 2 2 2 2 2 2 2 2 2 3 3 4 5 5 6
9 9 8 8 8 8 7 8 8 8 7 7 7 7 7 7 7 6 5 4 4 4 3 2 2 2 2 2 1 1 1 2 2 2 2 1 1 2 3 3 2 2 3
9 9 8 8 8 7 7 7 7 7 6 6 7 7 7 7 7 6 5 4 4 3 3 3 2 2 2 2 1 1 0 1 1 2 2 3 2 3 3 3 3 2 2
8 8 8 8 7 7 7 7 7 6 6 6 7 7 7 7 7 7 6 5 4 4 3 3 3 2 2 2 2 1 0 1 1 1 2 2 3 3 3 4 4 2 1
7 7 7 7 7 7 6 6 7 7 7 7 7 6 6 6 6 6 6 5 4 4 4 4 4 3 3 2 2 1 1 1 1 1 1 1 2 3 3 3 4 3 2
8 7 7 6 7 7 6 6 7 7 7 7 7 7 6 6 6 5 5 4 4 4 4 4 4 4 4 4 4 2 1 1 1 1 1 1 2 2 2 2 2 3 2
8 7 7 7 7 6 6 7 7 7 7 6 6 6 6 5 5 5 5 4 4 3 3 4 4 4 4 5 4 4 3 2 1 1 1 2 3 3 2 2 3 4 2
8 7 7 8 7 6 5 7 8 7 7 6 6 6 6 5 5 4 4 3 3 3 3 3 3 4 3 4 6 5 4 3 2 2 3 3 4 4 3 4 4 2 2
7 7 7 8 8 7 7 6 7 6 6 6 6 5 5 5 5 4 4 3 3 3 3 3 3 3 3 3 3 2 2 2 2 2 3 5 5 4 4 4 3 2 2
7 6 7 8 9 8 7 8 7 6 6 5 5 5 4 4 4 4 3 4 3 3 3 2 2 3 3 4 5 3 2 1 1 2 2 2 2 3 3 3 3 2 2
6 7 7 8 8 8 8 7 6 6 5 5 5 4 4 4 4 4 4 6 6 7 8 7 5 4 5 6 5 4 3 3 2 2 2 2 2 2 2 2 2 2 2
Wind_Direction
351 358 1 3 6 6 7 3 4 360 3 3 355 347 341 340 346 346 342 342 334 316 318 296 246 222 208 202 186 174 154 148 142 117 90 48 60 74 72 76 84 73 75
356 359 1 3 3 0 0 0 355 352 348 337 335 325 318 319 327 341 340 341 337 319 286 268 252 236 224 201 190 176 162 159 165 145 139 143 10 21 57 68 96 89 73
351 350 354 354 355 357 355 352 346 344 345 344 0 4 3 357 1 344 331 325 319 311 314 290 262 237 222 214 204 194 177 178 189 169 157 161 192 199 346 67 85 90 94
353 349 351 349 347 344 346 348 347 347 345 349 353 3 342 325 315 314 310 316 315 313 301 289 274 245 230 221 217 206 197 177 185 187 154 152 148 154 178 274 85 95 93
351 348 348 343 339 341 347 345 349 351 349 344 335 320 312 313 320 328 319 320 314 309 300 283 277 268 247 230 219 212 198 189 183 179 167 146 109 133 151 194 228 356 324
346 346 349 350 348 350 353 350 351 348 346 340 335 323 311 316 325 323 311 312 308 301 299 288 275 277 267 241 227 211 202 197 184 180 178 169 161 167 159 174 192 220 261
344 348 350 350 349 350 351 349 347 342 341 337 330 318 307 292 284 290 290 299 302 295 277 281 271 266 273 266 241 216 210 199 187 188 193 191 188 160 158 157 168 192 262
344 342 343 345 344 344 344 345 343 339 338 335 325 319 311 301 294 294 289 280 282 280 273 266 259 255 255 265 252 227 216 205 195 193 191 189 190 174 166 161 156 158 222
337 336 340 343 341 340 339 338 337 335 334 331 324 319 318 310 302 298 293 280 283 292 283 266 258 253 251 254 246 228 220 205 204 200 195 194 192 187 187 170 166 165 186
333 334 340 340 339 337 337 337 336 332 330 332 328 321 315 308 302 299 296 293 291 292 282 274 261 250 246 244 245 229 214 197 213 207 198 202 195 190 185 183 184 176 176
322 327 333 333 334 339 341 343 339 336 335 333 328 323 317 314 309 303 300 299 294 285 276 267 260 248 239 231 234 239 208 198 204 205 198 204 194 188 184 181 183 182 167
316 325 328 332 338 340 341 340 337 334 331 328 326 327 324 320 315 310 307 300 293 285 277 273 263 252 243 229 222 234 213 200 204 209 203 208 196 192 186 184 187 188 181
329 334 331 332 332 333 334 334 331 329 329 327 328 330 332 327 320 314 310 303 298 298 298 290 271 253 242 235 236 233 212 205 209 211 210 208 195 197 191 186 186 188 182
329 333 332 326 326 326 327 327 327 327 329 330 329 330 329 325 321 320 317 314 311 305 295 285 274 255 237 227 230 230 202 205 212 215 214 207 201 201 192 187 185 178 172
330 328 329 325 323 324 325 326 327 327 327 328 329 327 326 324 324 327 323 321 319 313 297 286 283 272 244 220 214 218 200 199 206 207 213 210 204 202 197 190 181 175 174
322 323 325 324 320 321 322 324 324 324 323 323 326 328 329 330 329 327 326 328 327 326 317 299 292 285 275 261 242 241 201 192 194 192 195 199 191 181 185 194 188 183 182
316 318 318 314 311 310 313 315 316 318 321 323 326 330 331 330 328 327 331 331 330 331 329 317 307 292 274 271 269 292 243 194 198 191 181 181 173 171 150 145 159 182 196
317 315 313 311 307 305 312 313 317 319 321 324 327 330 333 328 328 332 330 327 333 334 334 332 322 304 289 287 287 306 254 185 196 185 171 171 174 176 160 147 153 169 192
304 303 303 305 307 306 310 316 318 321 323 325 326 328 328 325 328 331 330 328 335 341 342 339 346 336 313 310 309 315 147 126 147 153 150 153 151 162 163 154 155 158 157
310 310 312 314 314 311 315 316 316 318 319 319 320 322 323 322 323 324 326 332 338 340 345 352 356 355 347 330 318 319 108 96 82 73 94 143 140 151 161 160 156 164 171
315 316 316 315 313 316 317 314 313 312 314 317 320 322 324 323 322 327 333 342 345 352 0 0 360 4 3 2 1 5 41 101 97 76 67 79 97 127 136 154 155 165 159
324 324 322 319 320 323 321 314 311 315 321 320 320 322 326 327 331 335 337 345 352 357 2 5 3 4 1 5 12 17 13 33 81 79 72 85 79 77 96 111 128 123 108
323 325 323 321 324 327 325 316 317 323 323 322 323 326 330 332 334 334 337 348 357 355 350 356 358 355 356 359 6 15 22 30 44 78 86 78 71 59 62 71 85 98 108
324 326 327 327 326 328 326 318 319 323 322 321 324 329 332 334 339 336 336 341 346 343 343 349 345 342 345 348 349 357 12 31 43 62 77 71 65 58 57 56 52 52 82
324 327 328 324 322 325 326 325 326 327 325 322 326 331 332 330 332 335 338 335 333 335 338 330 326 333 334 339 344 347 360 20 61 69 62 62 65 65 60 55 52 55 61
321 324 325 323 323 327 326 327 330 330 325 324 331 332 330 328 331 332 338 347 347 352 355 354 351 340 342 344 352 2 19 26 48 61 74 69 67 69 64 63 52 47 50